Weather reports worldwide

Advertisment
Lorient Lan Bihoue, France (7205): temperature & dewpoint: 12.01.2020 13:00:00 - 18.01.2020 13:00:00 (CET)Lorient Lan Bihoue, France (7205): temperature 5cm: 12.01.2020 13:00:00 - 18.01.2020 13:00:00 (CET)Lorient Lan Bihoue, France (7205): temperature -20cm: 12.01.2020 13:00:00 - 18.01.2020 13:00:00 (CET)Lorient Lan Bihoue, France (7205): wind speed & gusts: 12.01.2020 13:00:00 - 18.01.2020 13:00:00 (CET)Lorient Lan Bihoue, France (7205): wind direction: 12.01.2020 13:00:00 - 18.01.2020 13:00:00 (CET)Lorient Lan Bihoue, France (7205): reduced air pressure: 12.01.2020 13:00:00 - 18.01.2020 13:00:00 (CET)Lorient Lan Bihoue, France (7205): visibility: 12.01.2020 13:00:00 - 18.01.2020 13:00:00 (CET)Lorient Lan Bihoue, France (7205): sunshine duration: 12.01.2020 13:00:00 - 18.01.2020 13:00:00 (CET)Lorient Lan Bihoue, France (7205): precipitation: 12.01.2020 13:00:00 - 18.01.2020 13:00:00 (CET)
Date & Time tt [°C] td [°C] tt 5cm [°C] tt -20cm [°C] ff [km/h] ff [kn] fx [km/h] fx [kn] dd ppp [hPa] vv [km] sd [min] rr [mm]
18.01.2020 13:00:00 8,9 5,6 8,9 9,1 17 9 26 14 E 1026,1 20 17 0,0
18.01.2020 12:00:00 7,9 5,9 6,0 9,1 19 10 26 14 E 1026,2 20 44 0,0
18.01.2020 11:00:00 6,0 4,8 3,1 9,2 13 7 19 11 E 1026,4 19 50 0,0
18.01.2020 10:00:00 3,1 2,5 -0,3 9,3 11 6 14 8 E 1026,4 16 36 0,0
18.01.2020 09:00:00 2,2 1,6 -0,5 9,4 10 5 13 7 ENE 1026,6 16 0 0,0
18.01.2020 08:00:00 3,1 2,2 0,2 9,4 8 5 10 5 E 1027,0 11 0 0,0
18.01.2020 07:00:00 3,3 2,3 1,1 9,4 10 5 10 6 E 1026,9 17 0 0,0
18.01.2020 06:00:00 4,8 3,1 3,6 9,4 6 3 16 9 N 1027,1 36 0 0,0
18.01.2020 05:00:00 7,1 4,1 3,3 9,6 3 2 34 18 WSW 1027,5 52 0 1,4
18.01.2020 04:00:00 3,8 2,5 0,7 9,6 6 3 8 4 SW 1027,9 20 0 0,0
18.01.2020 03:00:00 3,9 2,1 0,8 9,7 2 1 13 7 ESE 1027,8 36 0 0,0
18.01.2020 02:00:00 5,7 3,0 1,5 9,7 8 4 13 7 W 1027,7 41 0 0,0
18.01.2020 01:00:00 5,6 2,6 2,9 9,9 10 5 22 12 W 1027,8 40 0 0,0
18.01.2020 00:00:00 6,2 3,0 2,1 9,8 16 9 28 15 W 1027,5 38 0 0,0
17.01.2020 23:00:00 5,9 2,7 2,9 9,9 12 7 34 18 W 1027,3 29 0 0,0
17.01.2020 22:00:00 5,7 2,7 3,7 9,9 11 6 41 22 W 1027,0 44 0 0,6
17.01.2020 21:00:00 7,7 3,9 5,7 10,1 31 17 54 29 W 1026,8 20 0 0,0
17.01.2020 20:00:00 7,6 3,3 5,2 10,0 20 11 35 19 W 1026,2 41 0 0,0
17.01.2020 19:00:00 7,3 3,3 5,3 10,1 17 9 37 20 W 1025,6 35 0 0,0
17.01.2020 18:00:00 7,4 3,4 5,1 10,1 19 11 41 22 W 1025,1 41 0 0,2
17.01.2020 17:00:00 8,1 2,7 7,3 10,0 22 12 48 26 WNW 1024,1 55 29 0,0
17.01.2020 16:00:00 8,5 4,1 6,7 10,1 18 10 64 34 W 1023,7 37 43 0,2
17.01.2020 15:00:00 9,4 2,7 7,1 10,1 22 12 44 24 W 1023,0 32 52 0,0
17.01.2020 14:00:00 9,0 3,0 8,1 10,1 23 12 47 26 WNW 1022,5 26 39 0,2
17.01.2020 13:00:00 9,8 4,2 9,9 10,1 29 15 49 26 W 1022,1 26 55 0,0
17.01.2020 12:00:00 9,3 3,7 8,9 10,2 21 12 37 20 W 1021,9 20 47 0,0
17.01.2020 11:00:00 9,1 3,7 7,1 10,2 14 8 34 18 W 1020,8 19 36 0,0
17.01.2020 10:00:00 8,7 4,3 6,0 10,3 17 9 27 15 W 1019,8 20 19 0,0
17.01.2020 09:00:00 7,8 3,6 6,2 10,4 15 8 32 17 W 1018,7 36 0 0,0
17.01.2020 08:00:00 8,3 4,5 6,9 10,3 22 12 49 27 W 1017,1 20 0 0,0
17.01.2020 07:00:00 9,3 5,1 8,0 10,4 36 20 58 32 W 1016,0 19 0 0,0
17.01.2020 06:00:00 9,7 5,7 8,3 10,5 32 18 56 31 W 1014,8 17 0 0,0
17.01.2020 05:00:00 9,7 5,7 7,8 10,4 37 20 64 35 WSW 1014,3 35 0 0,0
17.01.2020 04:00:00 10,4 7,8 9,4 10,5 33 18 53 28 WSW 1014,1 16 0 0,0
17.01.2020 03:00:00 10,3 8,4 9,2 10,5 34 18 59 32 WSW 1013,7 15 0 0,2
17.01.2020 02:00:00 10,6 8,7 10,0 10,5 32 18 50 27 WSW 1013,3 17 0 0,0
17.01.2020 01:00:00 11,2 10,1 10,7 10,4 22 12 32 18 SW 1012,9 11 0 0,0
17.01.2020 00:00:00 11,1 10,0 10,6 10,4 21 11 36 19 SW 1012,8 13 0 0,0
16.01.2020 23:00:00 11,0 9,7 10,6 10,5 20 11 37 20 SSW 1012,7 13 0 0,0
16.01.2020 22:00:00 11,3 10,2 10,7 10,5 24 13 37 20 SSW 1013,0 12 0 0,0
16.01.2020 21:00:00 11,0 9,9 10,6 10,3 18 10 35 19 SSW 1013,3 15 0 0,0
16.01.2020 20:00:00 11,0 10,2 10,4 10,4 18 10 30 16 SW 1013,2 10 0 0,2
16.01.2020 19:00:00 10,7 9,8 10,2 10,4 18 10 58 31 SW 1012,8 7 0 1,6
16.01.2020 18:00:00 11,7 10,8 11,3 10,3 41 22 74 40 SW 1012,9 5 0 3,1
16.01.2020 17:00:00 12,2 11,1 11,7 10,2 36 20 64 34 SSW 1012,8 3,7 0 3,2
16.01.2020 16:00:00 12,6 11,0 11,9 10,2 27 14 40 22 S 1012,8 7 0 0,4
16.01.2020 15:00:00 13,0 11,2 12,2 10,1 23 12 51 27 S 1012,9 11 0 0,4
16.01.2020 14:00:00 12,8 10,9 12,1 10,1 31 17 58 32 S 1014,1 8 0 0,0
16.01.2020 13:00:00 13,0 10,7 12,4 10,0 34 18 61 33 SSE 1013,9 11 0 0,0
16.01.2020 12:00:00 12,7 10,2 12,1 9,9 40 22 59 32 SSE 1015,0 11 0 0,0
16.01.2020 11:00:00 12,4 10,3 11,1 10,0 27 15 54 29 SSE 1015,1 13 0 -
16.01.2020 10:00:00 11,8 10,2 10,8 9,9 24 13 45 24 SSE 1015,6 11 0 0,2
16.01.2020 09:00:00 11,5 10,2 10,7 10,0 29 15 51 28 SSE 1016,1 10 0 0,0
16.01.2020 08:00:00 11,1 9,7 10,6 10,1 29 15 47 26 SE 1016,0 14 0 0,0
16.01.2020 07:00:00 11,2 9,1 10,3 10,0 26 14 45 25 SE 1016,4 20 0 0,0
16.01.2020 06:00:00 10,8 9,1 9,5 10,1 24 13 39 21 SSE 1017,3 19 0 0,0
16.01.2020 05:00:00 10,3 8,2 8,9 10,1 22 12 35 19 SSE 1018,3 18 0 0,0
16.01.2020 04:00:00 10,2 7,3 8,7 10,1 23 13 36 20 SSE 1019,4 38 0 0,0
16.01.2020 03:00:00 10,1 6,8 8,1 10,2 22 12 35 19 S 1019,8 43 0 0,0
16.01.2020 02:00:00 9,5 6,2 7,7 10,3 19 10 28 15 S 1020,1 43 0 0,0
16.01.2020 01:00:00 9,6 6,7 7,1 10,3 19 11 29 16 S 1020,5 40 0 0,0
16.01.2020 00:00:00 8,5 5,9 4,8 10,4 15 8 21 11 SSE 1020,8 33 0 0,0
15.01.2020 23:00:00 7,9 5,0 4,4 10,4 11 6 16 9 SSE 1020,7 19 0 0,0
15.01.2020 22:00:00 7,7 4,5 4,1 10,5 8 5 19 10 SSE 1020,9 19 0 0,0
15.01.2020 21:00:00 7,4 3,8 4,4 10,5 10 6 19 10 SSW 1021,1 20 0 0,0
15.01.2020 20:00:00 8,5 4,1 6,1 10,6 13 7 22 12 SW 1020,8 35 0 0,0
15.01.2020 19:00:00 8,6 5,3 5,7 10,6 10 5 15 8 WSW 1019,9 18 0 0,0
15.01.2020 18:00:00 8,4 4,4 6,9 10,6 12 6 24 13 WSW 1019,0 18 17 0,0
15.01.2020 17:00:00 10,3 5,1 10,0 10,6 19 11 29 16 W 1017,8 20 34 0,0
15.01.2020 16:00:00 10,6 5,6 10,4 10,5 19 10 41 22 W 1016,6 20 53 0,0
15.01.2020 15:00:00 11,4 6,9 11,3 10,5 24 13 39 21 W 1015,5 20 54 0,0
15.01.2020 14:00:00 11,1 8,0 11,1 10,5 18 10 34 18 W 1014,5 19 53 0,0
15.01.2020 13:00:00 10,3 8,1 11,0 10,6 15 8 26 14 WSW 1013,7 19 28 0,0
15.01.2020 12:00:00 10,1 8,4 9,7 10,5 15 8 27 14 W 1012,7 48 11 0,0
15.01.2020 11:00:00 9,5 7,9 9,3 10,5 16 8 37 20 W 1010,8 18 0 0,2
15.01.2020 10:00:00 10,2 9,0 9,6 10,6 28 15 45 24 WSW 1008,5 7 0 0,0
15.01.2020 09:00:00 10,6 9,2 10,0 10,5 11 6 66 36 WSW 1006,0 7 0 0,4
15.01.2020 08:00:00 12,1 10,5 11,2 10,5 41 22 70 38 SSW 1004,6 8 0 1,2
15.01.2020 07:00:00 13,1 9,3 11,2 10,5 37 20 67 36 SSW 1004,0 14 0 0,2
15.01.2020 06:00:00 13,6 8,6 11,0 10,5 39 21 72 39 S 1003,6 17 0 0,0
15.01.2020 05:00:00 13,6 8,6 12,4 10,5 39 21 73 40 S 1003,8 16 0 0,0
15.01.2020 04:00:00 13,8 8,4 12,7 10,5 41 22 77 42 SSW 1004,8 17 0 0,0
15.01.2020 03:00:00 13,7 8,1 12,5 10,5 47 26 77 42 SSW 1004,8 18 0 0,0
15.01.2020 02:00:00 13,5 8,5 12,6 10,5 41 22 71 38 SSW 1005,1 17 0 0,0
15.01.2020 01:00:00 13,3 8,8 12,5 10,5 41 22 69 37 SSW 1005,5 16 0 0,0
15.01.2020 00:00:00 13,4 9,1 11,9 10,5 38 21 64 35 SSW 1006,0 15 0 0,0
14.01.2020 23:00:00 13,3 9,2 11,0 10,5 37 20 79 42 SSW 1005,9 15 0 0,6
14.01.2020 22:00:00 13,6 8,8 11,0 10,5 43 23 74 40 S 1006,0 16 0 0,6
14.01.2020 21:00:00 12,9 9,2 11,0 10,4 40 22 69 37 SSW 1006,4 10 0 0,4
14.01.2020 20:00:00 12,5 9,9 10,9 10,4 41 22 73 40 SSW 1006,5 6 0 1,4
14.01.2020 19:00:00 12,6 9,6 11,0 10,4 45 25 80 43 SSW 1005,9 7 0 0,6
14.01.2020 18:00:00 12,4 9,8 11,0 10,5 46 25 77 41 SSW 1005,5 6 0 0,2
14.01.2020 17:00:00 12,6 10,0 11,7 10,3 42 23 73 39 SSW 1005,1 10 0 0,0
14.01.2020 16:00:00 12,3 10,5 11,4 10,3 40 22 69 38 SSW 1005,1 8 0 0,0
14.01.2020 15:00:00 12,1 10,7 11,5 10,3 39 21 78 42 SSW 1004,7 5 0 0,6
14.01.2020 14:00:00 12,7 11,1 11,8 10,3 46 25 85 46 SSW 1004,7 7 0 0,0
14.01.2020 13:00:00 12,0 11,4 11,8 10,2 44 24 80 43 SSW 1005,0 3,4 0 0,8
14.01.2020 12:00:00 12,2 11,6 11,9 10,1 46 25 76 41 SSW 1004,8 1,7 0 1,6
14.01.2020 11:00:00 12,3 11,5 11,9 10,2 44 24 76 41 SSW 1004,3 3,8 0 0,8
14.01.2020 10:00:00 12,5 11,7 11,4 10,1 44 24 73 39 SW 1004,0 9 0 0,2
14.01.2020 09:00:00 11,3 11,0 11,1 10,1 27 15 55 30 SSW 1003,9 2,3 0 0,4
14.01.2020 08:00:00 11,4 11,1 11,1 10,0 35 19 60 33 SSW 1004,2 2,6 0 2,1
14.01.2020 07:00:00 11,1 10,6 10,9 10,0 19 10 37 20 SW 1004,1 2,7 0 0,4
14.01.2020 06:00:00 11,0 10,5 10,7 10,0 22 12 34 19 SW 1004,2 5 0 0,8
14.01.2020 05:00:00 11,0 10,4 10,9 9,9 21 11 75 40 WSW 1004,1 2,4 0 2,0
14.01.2020 04:00:00 11,9 11,1 11,7 9,9 42 23 77 42 SW 1003,7 7 0 0,0
14.01.2020 03:00:00 12,0 10,9 11,6 9,9 45 25 81 44 SW 1003,7 10 0 0,0
14.01.2020 02:00:00 11,8 10,9 11,3 9,9 42 23 73 39 SW 1004,2 8 0 0,0
14.01.2020 01:00:00 11,7 10,9 11,1 9,8 47 25 77 41 SW 1004,8 10 0 0,6
14.01.2020 00:00:00 11,3 10,7 11,0 9,8 45 24 72 39 SW 1005,0 2,4 0 2,0
13.01.2020 23:00:00 11,3 10,7 10,9 9,7 43 23 76 41 SSW 1005,2 4,4 0 1,5
13.01.2020 22:00:00 11,3 10,5 10,8 9,7 41 22 78 42 SSW 1005,5 2,9 0 1,0
13.01.2020 21:00:00 11,3 10,4 10,8 9,6 42 23 80 43 SSW 1006,2 4,0 0 0,8
13.01.2020 20:00:00 11,3 10,4 10,7 9,6 45 25 76 41 SSW 1007,1 5 0 2,6
13.01.2020 19:00:00 11,3 10,2 10,7 9,6 36 20 74 40 SSW 1007,5 7 0 0,4
13.01.2020 18:00:00 11,4 10,1 10,7 9,5 45 24 74 40 SSW 1007,8 7 0 0,0
13.01.2020 17:00:00 11,0 10,2 10,7 9,4 41 22 78 42 SSW 1008,1 7 0 0,2
13.01.2020 16:00:00 11,3 10,0 10,7 9,4 36 19 59 32 SSW 1009,0 6 0 0,0
13.01.2020 15:00:00 11,3 10,2 11,0 9,4 35 19 61 33 SSW 1010,3 13 0 0,0
13.01.2020 14:00:00 11,2 9,5 11,1 9,3 32 17 64 35 SW 1011,9 19 0 0,0
13.01.2020 13:00:00 11,3 9,6 10,6 9,3 36 19 57 31 SW 1013,3 19 0 0,0
13.01.2020 12:00:00 10,7 9,9 9,8 9,3 30 16 58 31 SSW 1014,3 4,0 0 0,6
13.01.2020 11:00:00 10,5 8,9 9,3 9,2 27 14 42 23 SSW 1015,2 10 0 0,0
13.01.2020 10:00:00 9,6 8,4 8,6 9,3 21 12 47 26 S 1016,2 31 0 0,2
13.01.2020 09:00:00 9,3 8,2 7,1 9,3 16 9 29 16 S 1017,2 15 0 0,2
13.01.2020 08:00:00 8,6 7,5 5,9 9,4 17 9 27 15 SSW 1018,1 18 0 0,0
13.01.2020 07:00:00 7,7 6,8 3,5 9,5 13 7 16 9 S 1018,5 18 0 0,0
13.01.2020 06:00:00 6,7 5,5 1,5 9,5 11 6 14 8 S 1019,2 20 0 0,0
13.01.2020 05:00:00 6,9 5,2 3,0 9,6 9 5 20 11 S 1020,2 18 0 0,0
13.01.2020 04:00:00 7,7 5,3 6,1 9,6 13 7 22 12 SSW 1021,5 38 0 0,0
13.01.2020 03:00:00 8,7 5,8 7,5 9,6 15 8 32 18 SW 1022,3 41 0 0,0
13.01.2020 02:00:00 8,3 6,1 7,2 9,7 13 7 43 23 SW 1023,4 40 0 0,0
13.01.2020 01:00:00 8,4 7,3 6,4 9,7 13 7 20 11 SW 1024,4 19 0 0,2
13.01.2020 00:00:00 8,2 7,4 5,0 9,7 11 6 19 11 SW 1024,9 18 0 0,0
12.01.2020 23:00:00 5,9 5,2 3,1 9,8 3 2 12 7 SSE 1025,3 1,9 0 0,0
12.01.2020 22:00:00 7,0 6,3 3,5 9,9 4 2 6 3 S 1025,7 0,5 0 0,0
12.01.2020 21:00:00 8,1 7,0 4,8 9,8 3 1 38 21 WSW 1025,9 14 0 0,4
12.01.2020 20:00:00 7,5 6,3 4,1 9,8 8 4 11 6 SSW 1026,4 10 0 0,0
12.01.2020 19:00:00 7,7 6,2 5,1 9,8 8 4 15 8 WSW 1026,6 15 0 0,0
12.01.2020 18:00:00 8,7 6,7 7,7 9,8 14 7 23 12 WSW 1026,5 16 1 0,0
12.01.2020 17:00:00 10,1 7,7 9,9 9,8 15 8 29 16 WSW 1026,4 15 33 0,0
12.01.2020 16:00:00 10,9 7,6 11,1 9,7 20 11 36 19 W 1026,3 18 48 0,0
12.01.2020 15:00:00 11,9 9,5 12,2 9,6 26 14 39 21 WSW 1026,1 16 33 0,0
12.01.2020 14:00:00 12,2 9,6 14,3 9,6 22 12 37 20 W 1026,5 15 60 0,0
12.01.2020 13:00:00 12,3 10,4 13,2 9,5 20 11 41 22 W 1026,9 13 58 0,0

tt = temperature
td = dewpoint
tt 5cm = temperature 5cm
tt -20cm = temperature -20cm
ff = wind speed
fx = gusts
dd = wind direction
ppp = reduced air pressure
vv = visibility
sd = sunshine duration
rr = precipitation

Next stations